Terug naar catalogus

STARLINK-37954

ActiefCommunicatieSSO
NORAD 69558·PAYLOAD·🇺🇸 United States

Gelanceerd Jun 15, 2026 vanaf Vandenberg Space Force Base

Loading…

Volgende Passages (komende 24 uur)

TLE

VersSource: CelesTrak SupGP

Epoch: Sep 15, 2026, 03:14 UTC

1 69558C 26135N   26258.13520833 -.00044341  00000+0 -13764-2 0  2586
2 69558  97.2835 285.9059 0001336  87.6812  89.8228 15.33462302    19

Volg STARLINK-37954 in realtime met AllMySat

Download on the App Store